Cloud_Cover
0 0 0 0 0 0 0 0 0 0 42 19 31 0 0 0 5 0 0 0 0 0 4 0 0 3 2 1 1 50 64 6 28 4 0 4 0 0 0 0 0 0 0 0 0
0 0 0 0 0 0 0 0 0 0 27 2 15 4 0 6 0 0 0 0 0 0 0 0 0 2 92 40 2 92 3 3 5 5 1 1 4 4 0 0 0 0 0 0 0
0 0 0 0 0 0 0 0 0 0 0 1 1 0 0 13 0 0 0 0 0 0 0 0 0 58 99 53 8 58 0 0 3 3 5 2 4 5 67 3 0 0 0 0 0
0 0 0 0 0 0 0 0 0 0 11 20 0 0 4 0 0 0 0 0 0 0 0 0 19 86 99 50 21 20 0 0 4 0 1 5 5 5 5 1 0 0 0 0 0
0 0 0 0 0 0 0 0 0 0 22 19 0 0 2 0 0 0 0 0 0 0 0 0 5 64 78 52 62 15 0 5 77 100 0 4 5 6 1 0 0 0 0 0 0
0 0 0 0 0 0 0 0 0 0 9 0 0 36 0 0 0 0 0 0 0 0 0 0 2 1 22 4 43 4 0 0 12 51 5 5 5 6 4 0 2 1 1 2 0
0 0 0 0 0 0 0 0 0 0 0 0 0 0 0 0 0 0 0 0 0 0 0 0 0 2 18 3 0 2 4 0 2 5 5 15 0 5 2 1 5 3 5 5 5
0 0 0 0 0 0 0 0 0 0 0 0 4 0 0 0 0 0 0 0 0 0 0 0 0 0 1 0 0 5 33 69 100 14 13 5 16 1 5 6 64 94 88 5 5
0 0 0 0 0 0 0 0 0 0 0 1 8 0 0 0 0 0 0 0 0 0 0 0 0 0 0 2 23 4 80 92 15 90 93 64 88 5 5 29 17 6 4 5 1
0 0 0 0 0 0 0 0 0 0 17 0 0 0 0 0 0 0 0 0 0 0 0 0 0 0 4 27 100 97 82 8 57 4 44 100 100 100 95 86 99 4 16 81 6
0 0 0 0 0 0 11 0 0 0 0 0 0 0 0 0 0 0 0 0 0 0 0 0 0 0 5 5 5 2 7 25 0 1 4 5 58 100 100 27 2 0 1 4 5
0 0 0 0 0 2 10 0 0 0 0 0 0 0 0 0 0 0 0 0 0 0 0 0 0 0 5 5 5 0 9 94 0 0 0 7 25 8 0 8 70 98 11 0 0
0 0 0 52 7 35 0 0 0 0 0 0 0 0 0 0 0 0 0 0 0 0 0 0 0 0 0 5 5 5 8 100 15 0 0 0 40 93 28 0 4 4 10 5 0
0 0 29 54 9 0 0 0 0 0 0 0 0 0 0 0 0 0 0 0 0 0 0 0 0 0 0 0 4 5 51 5 0 0 93 11 98 100 99 0 0 0 0 0 0
0 0 49 73 0 0 0 0 0 0 0 0 0 0 0 0 0 0 0 0 0 0 0 0 0 0 0 0 0 5 30 5 3 0 2 5 2 26 99 42 0 0 0 0 0
0 0 92 0 0 0 0 0 0 0 0 0 0 0 0 0 0 0 0 0 0 0 0 0 0 0 0 0 0 0 4 0 0 0 4 5 5 100 100 100 66 0 0 0 0
0 0 87 0 0 0 0 0 0 0 0 0 0 0 0 0 0 0 0 0 0 0 0 0 0 0 0 0 0 0 0 0 3 5 3 32 3 98 100 100 100 1 0 0 0
0 43 0 0 0 0 0 0 0 0 0 0 0 0 0 0 0 0 0 0 0 0 0 0 0 0 0 0 0 0 0 0 0 3 92 100 0 2 100 85 4 0 0 0 0
19 0 0 0 0 0 0 0 0 0 0 0 0 0 0 0 0 0 0 0 0 0 0 0 0 0 0 0 0 0 0 0 2 58 57 99 100 0 3 0 0 0 0 0 0
0 0 0 0 0 0 0 0 0 0 0 0 0 1 5 1 0 0 0 0 0 0 0 0 0 0 0 0 0 0 0 0 0 1 52 81 25 98 2 2 5 0 0 0 0
0 0 0 0 0 0 0 0 0 0 0 0 0 0 1 15 0 0 0 0 0 0 0 0 0 0 0 0 0 0 0 0 0 0 3 78 100 98 68 5 5 3 0 2 0
0 0 0 0 0 0 0 0 0 0 0 0 0 0 0 2 0 0 0 0 0 0 0 0 0 0 0 0 0 0 0 0 0 0 6 9 16 100 0 0 0 0 0 0 0
0 0 0 0 0 0 0 0 0 0 0 0 0 0 0 0 0 0 0 0 0 0 0 0 0 0 0 0 0 0 0 0 0 2 44 95 100 10 3 0 0 0 0 0 0
0 0 0 0 0 0 0 0 0 0 0 0 0 0 0 0 0 4 0 0 0 0 0 0 0 0 2 2 0 0 0 0 0 30 100 100 60 94 0 0 0 0 0 0 0
0 0 0 0 0 0 0 1 1 0 0 0 0 0 2 2 67 1 5 4 0 0 0 0 0 0 0 4 1 0 0 0 0 0 35 99 100 42 58 30 0 5 3 0 0
0 0 0 0 0 0 0 0 4 4 0 0 0 0 0 0 63 100 53 0 95 0 0 0 0 0 0 0 0 0 0 0 0 0 0 27 38 86 0 0 0 0 0 0 2
0 0 0 0 0 0 0 0 2 2 3 0 0 0 0 0 0 0 0 0 0 0 0 0 0 1 1 0 1 1 0 1 1 0 0 5 74 38 0 0 5 0 0 16 5